FW3587 Weather Reports


time (UTC)temp
C
wind
direction
speed
KPH
gust
KPH
rain 1hr
cm
rain 24hr
cm
rain mn
cm
humidity
%
barometer
mb
20260505153018 7 126 1.6 11.3 0.00 0.00 0.00 46 745.2
20260505151516 7 150 0.0 4.8 0.00 0.00 0.00 50 745.3
20260505140107 3 136 0.0 0.0 0.00 0.00 0.00 70 746.0
20260505124546 0 136 0.0 3.2 0.00 0.00 0.00 70 745.9
20260505123040 0 136 0.0 0.0 0.00 0.00 0.00 72 745.9
20260505121538 0 136 0.0 0.0 0.00 0.00 0.00 72 745.9
20260505120038 0 136 0.0 0.0 0.00 0.00 0.00 73 745.9
20260505114535 1 136 0.0 0.0 0.00 0.00 0.00 72 745.9
20260505113034 1 136 0.0 0.0 0.00 0.00 0.00 71 746.0
20260505111536 1 136 0.0 0.0 0.00 0.00 0.00 71 745.9
20260505101534 1 136 0.0 0.0 0.00 0.00 0.00 70 745.9
20260505100026 1 136 0.0 0.0 0.00 0.00 0.00 70 745.7
20260505094523 2 136 0.0 0.0 0.00 0.00 0.00 69 745.9
20260505093033 2 136 0.0 0.0 0.00 0.00 0.00 68 745.9
20260505091525 2 136 0.0 4.8 0.00 0.00 0.00 68 745.9
20260505090019 2 136 0.0 0.0 0.00 0.00 0.00 67 746.0
20260505084518 2 136 0.0 0.0 0.00 0.00 0.00 69 746.2
20260505083024 2 136 0.0 0.0 0.00 0.00 0.00 69 746.3
20260505081517 2 136 0.0 0.0 0.00 0.00 0.00 70 746.3
20260505080016 2 136 0.0 0.0 0.00 0.00 0.00 69 746.4
20260505074515 2 136 0.0 0.0 0.00 0.00 0.00 68 746.2
20260505073013 2 136 0.0 0.0 0.00 0.00 0.00 68 746.3
20260505071511 2 136 0.0 0.0 0.00 0.00 0.00 68 746.3
20260505070011 2 136 0.0 0.0 0.00 0.00 0.00 67 746.2
20260505064508 3 136 0.0 0.0 0.00 0.00 0.00 67 746.0
20260505063007 3 136 0.0 0.0 0.00 0.00 0.00 67 746.2
20260505061508 3 136 0.0 0.0 0.00 0.00 0.00 66 746.0
20260505060001 3 136 0.0 0.0 0.00 0.00 0.00 65 746.2
20260505054608 3 136 0.0 0.0 0.00 0.00 0.00 65 746.2
20260505053100 3 136 0.0 1.6 0.00 0.00 0.00 64 746.2
20260505051614 3 136 0.0 0.0 0.00 0.00 0.00 64 746.4
20260505041559 5 136 0.0 0.0 0.00 0.00 0.00 60 746.4
20260505040055 5 136 0.0 0.0 0.00 0.00 0.00 59 746.3
20260505034554 6 136 0.0 0.0 0.00 0.00 0.00 58 746.3
20260505033055 6 136 0.0 0.0 0.00 0.00 0.00 56 746.2
20260505031557 7 136 0.0 0.0 0.00 0.00 0.00 54 746.2
20260505030053 7 136 0.0 0.0 0.00 0.00 0.00 53 746.1
20260505024554 7 136 0.0 0.0 0.00 0.00 0.00 51 746.0
20260505023051 8 136 0.0 0.0 0.00 0.00 0.00 48 745.8
20260505021553 9 136 0.0 3.2 0.00 0.00 0.00 44 745.8
20260505014552 10 136 0.0 0.0 0.00 0.00 0.00 40 745.8
20260505013049 11 136 0.0 6.4 0.00 0.00 0.00 35 745.8
20260505011551 11 136 1.6 6.4 0.00 0.00 0.00 34 745.7
20260505004547 11 133 0.0 4.8 0.00 0.00 0.00 33 746.0
20260505003049 12 132 4.8 9.7 0.00 0.00 0.00 32 745.9
20260505001545 12 133 1.6 17.7 0.00 0.00 0.00 31 746.2
20260505000047 12 134 8.0 17.7 0.00 0.00 0.00 32 746.4
20260504234543 13 153 3.2 11.3 0.00 0.00 0.00 33 746.2
20260504233059 13 143 0.0 8.0 0.00 0.00 0.00 34 746.2
20260504231545 13 123 4.8 24.1 0.00 0.00 0.00 31 746.1
20260504230050 13 169 0.0 11.3 0.00 0.00 0.00 35 745.9
20260504224537 13 186 1.6 16.1 0.00 0.00 0.00 37 746.0
20260504223037 13 235 3.2 9.7 0.00 0.00 0.00 34 746.0
20260504221534 13 205 3.2 14.5 0.00 0.00 0.00 37 746.0
20260504220034 13 197 6.4 17.7 0.00 0.00 0.00 35 746.1
20260504214530 14 213 3.2 16.1 0.00 0.00 0.00 36 746.3
20260504213029 15 111 3.2 12.9 0.00 0.00 0.00 35 746.4
20260504211526 15 142 4.8 12.9 0.00 0.00 0.00 35 746.6
20260504210031 15 131 6.4 16.1 0.00 0.00 0.00 35 746.8
20260504204522 15 227 4.8 14.5 0.00 0.00 0.00 34 746.9
20260504203024 15 115 3.2 17.7 0.00 0.00 0.00 36 747.0
20260504201518 15 202 3.2 9.7 0.00 0.00 0.00 42 747.1
20260504200017 14 130 4.8 9.7 0.00 0.00 0.00 41 747.1
20260504194515 14 269 3.2 12.9 0.00 0.00 0.00 42 747.1
20260504193017 15 161 1.6 12.9 0.00 0.00 0.00 43 747.4
20260504191521 14 128 1.6 12.9 0.00 0.00 0.00 44 747.5
20260504190010 14 113 4.8 14.5 0.00 0.00 0.00 44 747.5
20260504184508 14 279 0.0 12.9 0.00 0.00 0.00 45 747.6
20260504183007 13 146 6.4 19.3 0.00 0.00 0.00 44 747.5
20260504181603 13 159 3.2 11.3 0.00 0.00 0.00 46 747.6
20260504180100 13 130 3.2 11.3 0.00 0.00 0.00 47 747.7
20260504174600 13 138 3.2 12.9 0.00 0.00 0.00 47 747.9
20260504173058 13 136 3.2 9.7 0.00 0.00 0.00 50 748.0
20260504171550 12 133 3.2 11.3 0.00 0.00 0.00 52 748.3